Hourly Data Report for November 07, 2019

EUREKA CLIMATE
NUNAVUT
Current Station Operator: ECCC - MSC

79°59'21.000" N
85°56'02.000" W
10.00 m
2401199
71613
NEK

Download Data

Hourly Data (November 2019)
Hourly Data Report for November 7, 2019
TIME
LST
Temp Definition
°C
Dew Point Definition
°C
Rel Hum Definition
%
Precip. Amount Definition
mm

Wind Dir Definition
10's deg

Wind Spd Definition
km/h
Visibility Definition
km
Stn Press Definition
kPa
Hmdx Definition


Wind Chill Definition


Weather Definition


00:00 -24.5 -27.0 80 0.0 2 15   102.12   -35 LegendNANA
01:00 -24.8 -27.1 81 0.0 1 15   102.13   -35 LegendNANA
02:00 -25.6 -27.9 81 0.0 36 9   102.14   -33 LegendNANA
03:00 -25.7 -27.8 82 0.0 1 7   102.14   -32 LegendNANA
04:00 -26.3 -28.6 81 0.0 35 6   102.14   -32 LegendNANA
05:00 -26.3 -28.6 81 0.0 34 5   102.13   -31 LegendNANA
06:00 -26.7 -28.8 82 0.0 35 6   102.13   -33 LegendNANA
07:00 -26.5 -28.8 81 0.0 35 4   102.12   -31 LegendNANA
08:00 -26.7 -29.0 81 0.0 31 8   102.10   -34 LegendNANA
09:00 -26.6 -28.9 81 0.0 34 5   102.09   -32 LegendNANA
10:00 -27.3 -29.6 80 0.0 33 7   102.07   -34 LegendNANA
11:00 -26.7 -28.9 82 0.0 33 6   102.06   -33 LegendNANA
12:00 -26.8 -28.8 83 0.0 33 7   102.05   -34 LegendNANA
13:00 -27.0 -29.3 81 0.0 31 8   102.03   -34 LegendNANA
14:00 -27.2 -29.6 80 0.0 32 7   102.03   -34 LegendNANA
15:00 -27.2 -29.5 81 0.0 32 7   102.03   -34 LegendNANA
16:00 -26.4 -28.5 82 0.0 35 7   102.01   -33 LegendNANA
17:00 -29.4 -32.1 77 0.0 2 7   102.01   -37 LegendNANA
18:00 -27.6 -30.0 80 0.0 36 8   101.98   -35 LegendNANA
19:00 -26.7 -29.1 80 0.0 2 9   101.97   -35 LegendNANA
20:00 -26.8 -29.2 80 0.0 2 8   101.95   -34 LegendNANA
21:00 -27.4 -29.9 79 0.0 2 10   101.93   -36 LegendNANA
22:00 -27.1 -29.6 79 0.0 2 7   101.92   -34 LegendNANA
23:00 -28.4 -31.0 79 0.0 2 11   101.90   -38 LegendNANA

Notes on Data Quality.

Legend

  • E = Estimated
  • M = Missing
  • NA = Not Available*
  • [empty] = Indicates an unobserved value
Date modified: